Weather in Ringerike

Norway     60°11′05″N   10°11′57″E
temp.,
°C
wind,
m/s
gust,
m/s
humid.,
%
clouds,
%
prec.,
mm/h
press.,
hPa
HPBL,
m
6 may, thu
thu623:000nne3984100 0.0 1000849
02:00−2n4108283 0.0 1000475
05:00−3n3983100 0.0 1001286
08:000n486447 0.0 1001633
11:00+4nne4549100 0.0 10001569
14:00+6nnw3445100 0.1 10001853
17:00+6nw3449100 0.1 10001454
20:00+3nw2468100 0.1 1001198
7 may, fri
fri723:00−1n238570 0.0 100347
02:00−3n23859 0.0 100446
05:00−4n238458 0.0 100458
08:00+1n235769 0.0 1005333
11:00+6n233957 0.0 10041700
14:00+8nnw233482 0.0 10042314
17:00+8nw223648 0.0 10042158
20:00+6nnw235325 0.0 100587
8 may, sat
sat823:000nne117566 0.0 100613
02:00−1n227586 0.0 100733
05:000n1274100 0.0 100860
08:00+3n236578 0.0 1008501
11:00+7nnw115296 0.0 10081280
14:00+9w124380 0.1 10081697
17:00+9w3437100 0.1 10062363
20:00+7wsw2451100 0.1 1007143
9 may, sun
sun923:00+3wsw1166100 0.0 100710
02:00+2ese0068100 0.0 100710
05:00+2se1175100 0.0 100613
08:00+4se1372100 0.1 1006465
11:00+3ene1396100 1.5 1006404
14:00+2ne1299100 4.3 1006310
17:00+2nne1199100 1.9 1006309
20:00+2ese0199100 2.4 1006152
10 may, mon
mon1023:00+3s1199100 0.6 1006118
02:00+3wnw1199100 4.1 100574
05:00+3nne1199100 1.9 100458
08:00+4nw0199100 3.6 100464
11:00+5nnw1298100 3.6 1003109
14:00+6ssw119896 6.8 100474
17:00+9sw1295100 0.0 1004172
20:00+8sse1299100 0.6 100559